TimeEDT,TemperatureF,Dew PointF,Humidity,Sea Level PressureIn,VisibilityMPH,Wind Direction,Wind SpeedMPH,Gust SpeedMPH,PrecipitationIn,Events,Conditions,WindDirDegrees,DateUTC
12:14 AM,41.9,28.4,59,29.79,10.0,WNW,6.9,-,N/A,,Overcast,300,2012-11-02 04:14:00
12:35 AM,41.9,28.0,58,29.79,10.0,WNW,8.1,-,N/A,,Overcast,300,2012-11-02 04:35:00
12:54 AM,41.9,27.5,57,29.79,10.0,WNW,9.2,-,N/A,,Overcast,300,2012-11-02 04:54:00
1:15 AM,41.9,27.1,56,29.80,10.0,WNW,6.9,-,N/A,,Overcast,290,2012-11-02 05:15:00
1:34 AM,41.9,27.1,56,29.80,10.0,NW,9.2,-,N/A,,Overcast,310,2012-11-02 05:34:00
1:54 AM,41.9,27.3,56,29.80,10.0,WNW,8.1,-,N/A,,Overcast,300,2012-11-02 05:54:00
2:15 AM,41.5,27.0,56,29.80,10.0,WNW,9.2,16.1,N/A,,Overcast,300,2012-11-02 06:15:00
2:34 AM,41.4,27.3,57,29.80,10.0,WNW,9.2,17.3,N/A,,Overcast,300,2012-11-02 06:34:00
2:55 AM,41.2,27.5,58,29.80,10.0,NW,11.5,20.7,N/A,,Overcast,310,2012-11-02 06:55:00
3:14 AM,40.8,27.7,60,29.81,10.0,NW,11.5,17.3,N/A,,Overcast,310,2012-11-02 07:14:00
3:34 AM,40.5,27.7,60,29.81,10.0,NW,16.1,23.0,N/A,,Overcast,310,2012-11-02 07:34:00
3:55 AM,40.5,27.9,61,29.81,10.0,NW,9.2,19.6,N/A,,Overcast,310,2012-11-02 07:55:00
4:14 AM,40.3,28.4,63,29.81,10.0,NW,10.4,16.1,N/A,,Overcast,310,2012-11-02 08:14:00
4:35 AM,40.3,28.4,63,29.82,10.0,NW,6.9,16.1,N/A,,Overcast,320,2012-11-02 08:35:00
4:54 AM,40.3,28.2,62,29.82,10.0,WNW,6.9,-,N/A,,Overcast,300,2012-11-02 08:54:00
5:14 AM,40.3,28.0,62,29.82,10.0,NW,8.1,-,N/A,,Overcast,310,2012-11-02 09:14:00
5:34 AM,40.3,28.0,62,29.82,10.0,NW,9.2,-,N/A,,Overcast,310,2012-11-02 09:34:00
5:54 AM,40.1,27.7,61,29.83,10.0,NW,9.2,17.3,N/A,,Overcast,320,2012-11-02 09:54:00
6:15 AM,40.3,27.9,61,29.83,10.0,NW,5.8,-,N/A,,Overcast,310,2012-11-02 10:15:00
6:34 AM,40.3,28.0,62,29.84,10.0,NW,6.9,-,N/A,,Overcast,310,2012-11-02 10:34:00
6:55 AM,40.1,28.2,63,29.84,10.0,NW,8.1,-,N/A,,Overcast,310,2012-11-02 10:55:00
7:15 AM,40.1,28.4,63,29.85,10.0,NW,11.5,18.4,N/A,,Overcast,320,2012-11-02 11:15:00
7:34 AM,39.6,29.1,66,29.85,10.0,NW,11.5,-,N/A,,Overcast,320,2012-11-02 11:34:00
7:55 AM,38.8,31.5,75,29.86,10.0,NW,10.4,-,N/A,,Light Drizzle,320,2012-11-02 11:55:00
8:15 AM,37.0,32.2,83,29.87,5.0,NW,9.2,17.3,N/A,Snow,Light Snow,310,2012-11-02 12:15:00
8:34 AM,37.9,31.5,77,29.88,10.0,NNW,5.8,-,N/A,,Overcast,330,2012-11-02 12:34:00
8:55 AM,38.3,31.1,75,29.89,10.0,NW,10.4,-,N/A,,Overcast,320,2012-11-02 12:55:00
9:15 AM,38.5,31.1,75,29.90,10.0,North,9.2,-,N/A,,Overcast,350,2012-11-02 13:15:00
9:34 AM,36.1,32.0,85,29.91,5.0,North,6.9,-,N/A,Rain,Light Rain,350,2012-11-02 13:34:00
9:55 AM,37.4,31.3,79,29.91,10.0,NNW,9.2,18.4,N/A,,Overcast,340,2012-11-02 13:55:00
10:14 AM,37.6,30.0,74,29.92,10.0,NNW,15.0,20.7,N/A,,Overcast,330,2012-11-02 14:14:00
10:35 AM,38.3,29.7,71,29.93,10.0,NNW,13.8,21.9,N/A,,Overcast,330,2012-11-02 14:35:00
10:54 AM,38.8,28.0,65,29.93,10.0,NNW,13.8,25.3,N/A,,Mostly Cloudy,330,2012-11-02 14:54:00
11:15 AM,38.7,25.7,60,29.94,10.0,NNW,16.1,26.5,N/A,,Overcast,340,2012-11-02 15:15:00
11:35 AM,39.2,25.9,59,29.95,10.0,NNW,13.8,23.0,N/A,,Overcast,330,2012-11-02 15:35:00
11:54 AM,39.0,26.1,60,29.95,10.0,NNW,15.0,23.0,N/A,,Overcast,340,2012-11-02 15:54:00
12:15 PM,39.2,25.7,58,29.96,10.0,NNW,13.8,19.6,N/A,,Overcast,330,2012-11-02 16:15:00
12:35 PM,39.9,25.3,56,29.96,10.0,NNW,15.0,21.9,N/A,,Overcast,340,2012-11-02 16:35:00
12:54 PM,39.7,25.5,57,29.97,10.0,NW,12.7,19.6,N/A,,Overcast,320,2012-11-02 16:54:00
1:15 PM,40.1,24.8,54,29.97,10.0,NNW,11.5,16.1,N/A,,Overcast,330,2012-11-02 17:15:00
1:34 PM,40.1,25.0,55,29.97,10.0,NNW,11.5,18.4,N/A,,Overcast,340,2012-11-02 17:34:00
1:54 PM,40.3,24.8,54,29.97,10.0,NNW,11.5,16.1,N/A,,Overcast,330,2012-11-02 17:54:00
2:15 PM,40.1,25.2,55,29.97,10.0,NW,15.0,21.9,N/A,,Overcast,310,2012-11-02 18:15:00
2:34 PM,41.0,24.6,52,29.97,10.0,North,10.4,19.6,N/A,,Overcast,350,2012-11-02 18:34:00
2:55 PM,41.0,24.6,52,29.98,10.0,NNW,6.9,-,N/A,,Overcast,340,2012-11-02 18:55:00
3:14 PM,41.0,25.0,53,29.98,10.0,NNW,6.9,18.4,N/A,,Overcast,340,2012-11-02 19:14:00
3:35 PM,41.0,25.2,53,29.99,10.0,NNW,8.1,11.5,N/A,,Overcast,340,2012-11-02 19:35:00
3:54 PM,41.0,25.5,54,29.99,10.0,NW,6.9,-,N/A,,Overcast,320,2012-11-02 19:54:00
4:14 PM,41.0,25.7,55,30.00,10.0,NNW,6.9,-,N/A,,Overcast,330,2012-11-02 20:14:00
4:35 PM,41.0,25.9,55,30.00,10.0,NW,6.9,-,N/A,,Overcast,320,2012-11-02 20:35:00
4:54 PM,41.2,26.6,56,30.00,10.0,NW,10.4,16.1,N/A,,Overcast,310,2012-11-02 20:54:00
5:15 PM,41.0,27.3,58,30.01,10.0,North,6.9,-,N/A,,Overcast,350,2012-11-02 21:15:00
5:35 PM,41.0,27.5,59,30.01,10.0,NNW,9.2,-,N/A,,Overcast,340,2012-11-02 21:35:00
5:54 PM,40.5,27.9,61,30.02,10.0,NNW,8.1,-,N/A,,Overcast,330,2012-11-02 21:54:00
6:15 PM,40.6,28.0,61,30.02,10.0,NNW,6.9,-,N/A,,Overcast,330,2012-11-02 22:15:00
6:35 PM,40.5,28.0,61,30.02,10.0,NW,6.9,-,N/A,,Overcast,320,2012-11-02 22:35:00
6:54 PM,40.5,28.0,61,30.03,10.0,NNW,5.8,-,N/A,,Overcast,330,2012-11-02 22:54:00
7:15 PM,40.5,28.2,62,30.04,10.0,NNW,4.6,-,N/A,,Overcast,330,2012-11-02 23:15:00
7:34 PM,40.5,28.4,62,30.05,10.0,NNW,6.9,-,N/A,,Overcast,330,2012-11-02 23:34:00
7:55 PM,40.3,28.2,62,30.05,10.0,NW,3.5,-,N/A,,Overcast,320,2012-11-02 23:55:00
8:14 PM,40.5,28.2,62,30.05,10.0,NW,5.8,-,N/A,,Overcast,320,2012-11-03 00:14:00
8:35 PM,40.3,28.2,62,30.05,10.0,NNW,3.5,-,N/A,,Overcast,330,2012-11-03 00:35:00
8:55 PM,40.3,28.2,62,30.06,10.0,NW,8.1,-,N/A,,Overcast,320,2012-11-03 00:55:00
9:14 PM,40.3,28.0,62,30.06,10.0,NNW,6.9,-,N/A,,Overcast,330,2012-11-03 01:14:00
9:35 PM,40.3,28.2,62,30.06,10.0,NNW,6.9,-,N/A,,Overcast,330,2012-11-03 01:35:00
9:55 PM,40.1,28.8,64,30.06,10.0,NNW,6.9,-,N/A,,Overcast,340,2012-11-03 01:55:00
10:14 PM,40.1,28.9,64,30.07,10.0,NNW,6.9,-,N/A,,Overcast,340,2012-11-03 02:14:00
10:35 PM,40.1,28.6,63,30.07,10.0,NNW,11.5,-,N/A,,Overcast,330,2012-11-03 02:35:00
10:54 PM,39.9,28.6,64,30.07,10.0,NNW,6.9,-,N/A,,Overcast,340,2012-11-03 02:54:00
11:35 PM,39.4,26.6,60,30.08,10.0,North,9.2,16.1,N/A,,Overcast,360,2012-11-03 03:35:00
11:54 PM,39.2,26.6,61,30.08,10.0,NNW,10.4,-,N/A,,Overcast,340,2012-11-03 03:54:00